Weather in Baskatovka

Russia / Saratov Oblast     51°47′57″N   46°58′59″E
temp.,
°C
wind,
m/s
gust,
m/s
humid.,
%
clouds,
%
prec.,
mm/h
press.,
hPa
HPBL,
m
17 april, sat
sat1701:00+14ene235378 0.0 101819
04:00+12ne335910 0.0 101940
07:00+11ne377410 0.0 1018138
10:00+17ene68495 0.0 1019493
13:00+20e78382 0.0 10181201
16:00+21e663340 0.0 10171906
19:00+18ene5104999 0.0 1016216
22:00+12w71082100 1.1 1018301
18 april, sun
sun1801:00+11wnw61086100 0.6 1017414
04:00+11w4693100 0.9 1017238
07:00+11wnw349225 0.0 1017219
10:00+13nnw337064 0.0 1017767
13:00+15nw3364100 0.1 10171078
16:00+14n347394 0.3 1018337
19:00+14ne467570 0.4 1017309
22:00+12nne387599 0.7 1018247
19 april, mon
mon1901:00+10ne51181100 0.1 1018409
04:00+9ne71370100 0.2 1018548
07:00+8ene71277100 0.0 1018636
10:00+7ene81279100 0.1 1019642
13:00+8ene81075100 0.0 1020744
16:00+10ene61073100 0.0 1019853
19:00+9e81278100 0.0 1020642
22:00+5e91383100 0.0 1021537
20 april, tue
tue2001:00+4e81387100 1.4 1022509
04:00+4e91488100 3.6 1022571
07:00+4e81486100 0.0 1023627
10:00+5e91577100 0.0 1023698
13:00+10e101465100 0.0 10231099
16:00+10ese101464100 0.0 10221108
19:00+9ese91565100 0.0 1022878
22:00+9ese101866100 0.3 1021903
21 april, wed
wed2101:00+7ese91770100 2.1 1022792
04:00+5se101878100 5.4 1022732
07:00+4se102087100 4.9 1021652
10:00+5se91983100 5.2 1022797
13:00+5sse91785100 0.0 1023725
16:00+6sse81485100 0.0 1023689
19:00+5sse71389100 0.0 1024496
22:00+5sse51192100 0.0 1026444